Tracking 21473 objects as of 27-Sep-2020
HD Live streaming from Space Station
objects crossing your sky now

STARLINK-1458

Track STARLINK-1458 now!
10-day predictions
STARLINK-1458 is classified as:


NORAD ID: 45675
Int'l Code: 2020-035U
Perigee: 556.2 km
Apogee: 557.7 km
Inclination: 53.0 °
Period: 95.6 minutes
Semi major axis: 6927 km
RCS: Unknown
Launch date: June 4, 2020
Source: United States (US)
Launch site: AIR FORCE EASTERN TEST RANGE (AFETR)
aabbcc
Your satellite tracking list
Your tracking list is empty




NASA's NSSDC Master Catalog

Two Line Element Set (TLE):
1 45675U 20035U   20271.58337963 +.00009588 +00000-0 +67657-3 0  9997
2 45675 052.9971 356.0830 0001096 097.8762 248.1631 15.05564104001751
Source of the keplerian elements: AFSPC